Location: Betzi
(47.2343°N, 9.5260°E)
Time: 21:25:35
(UTC+00:00)

IDEFIX/ARIANE 42P - Pass Details

Date: 27 May 2022
Orbit: 785 x 802 km, 98.5° (Epoch: 29 June)

Event Time Altitude Azimuth Distance (km) Brightness Sun altitude
Rises 02:49:25 0° 5° (N) 3,325 6.6 -6.8°
Reaches altitude 10° 02:52:00 10° 355° (N) 2,391 5.6 -6.4°
Maximum altitude 02:56:30 30° 297° (WNW) 1,423 3.7 -5.9°
Drops below altitude 10° 03:00:59 10° 238° (WSW) 2,375 4.4 -5.3°
Enters shadow 03:01:57 - 233° (SW) 2,708 4.6 -5.2°
